Regional Weather Roundup
Issued by NWS

Home | Current Version | Previous Version | Text Only | Print | Product List | Glossary Off
Versions: 1 2 3 4 5 6 7 8 9 10 11 12 13 14 15 16 17 18 19 20 21 22 23 24 25 26 27 28 29 30 31 32 33 34 35 36 37 38 39 40 41 42 43 44 45 46 47

000
ASUS45 KCYS 271610
RWRWY

WYOMING REGIONAL WEATHER ROUNDUP
NATIONAL WEATHER SERVICE CHEYENNE WY
900 AM MST TUE JAN 27 2015

NOTE:  "FAIR" INDICATES FEW OR NO CLOUDS BELOW 12,000 FEET
WITH NO SIGNIFICANT WEATHER AND/OR OBSTRUCTIONS TO VISIBILITY.

WYZ001-271700-
YELLOWSTONE NATIONAL PARK

CITY           SKY/WX    TMP DP  RH WIND       PRES   REMARKS
LK YELLOWSTONE   N/A      7   5  91 CALM      30.25R
W YELLOWSTONE  NOT AVBL

$$
WYZ002>013-054>058-071-098>099-271700-
NORTHERN WYOMING

CITY           SKY/WX    TMP DP  RH WIND       PRES   REMARKS
JACKSON        FOG       12  10  92 CALM      30.28R VSB 1/4
CODY           FAIR      48  27  43 SW15      30.04R
GREYBULL       FAIR      17  15  92 NW7       30.08R FOG     WCI   8
WORLAND        FAIR      18  16  92 SW7       30.05F WCI   9
SHERIDAN       FAIR      44  28  53 S5        29.96F
BUFFALO        FAIR      53  25  33 W3        30.01F
GILLETTE       FAIR      54  26  34 SW20      29.99F
HULETT           N/A    N/A N/A N/A MISG        N/A
NEWCASTLE      FAIR      41  30  65 CALM      30.07S

$$
WYZ014>020-022>026-101>103-271700-
CENTRAL WYOMING

CITY           SKY/WX    TMP DP  RH WIND       PRES   REMARKS
BIG PINEY      FAIR      18  14  84 CALM      30.26S
PINEDALE       FAIR      14   9  79 NW7       30.27S WCI   4
DUBOIS         FAIR      37  18  44 NW23G33   30.15F WCI  26
LANDER         FAIR      30  25  81 CALM      30.13S
RIVERTON       FAIR      30  26  85 N3        30.14F
CASPER         FAIR      48  25  40 SW28G35   30.12R
DOUGLAS        FAIR      48  26  42 NW7       30.10F

$$
WYZ021-027>030-104>119-271700-
SOUTHERN WYOMING

CITY           SKY/WX    TMP DP  RH WIND       PRES   REMARKS
EVANSTON       FAIR      36  22  56 S5        30.23S WCI  32
KEMMERER       FAIR      28  21  74 NW8       30.25S WCI  20
FORT BRIDGER   FAIR      32  30  93 W6        30.27S WCI  26
ROCK SPRINGS   FAIR      30  25  81 W3        30.24S
DIXON          FAIR      25  21  83 CALM      30.34S
RAWLINS        FAIR      46  24  42 SW17G24   30.26S
SARATOGA       FAIR      37  23  56 MISG      30.30S
LARAMIE        FAIR      45  22  40 SW14      30.24F
CHEYENNE       FAIR      57  18  21 W13       30.16S
TORRINGTON     FAIR      40  29  64 N5        30.08S
PINE BLUFFS    FAIR      50  27  40 S5        30.15S

$$



USA.gov is the U.S. government's official web portal to all federal, state and local government web resources and services.